Missoula, MT

10:16 PM MDT on September 23, 2017 (GMT -0600)
Missoula International

Weather History for KMSO - November, 2013

Change the Weather History Date:

Saturday, November 9, 2013

  Actual Average Record
Temperature  
Mean Temperature 35 °F 36 °F  
Max Temperature 43 °F 45 °F 68 °F (1894)
Min Temperature 26 °F 27 °F 2 °F (1950)
Degree Days  
Heating Degree Days 30 29  
Month to date heating degree days 264 247  
Since 1 July heating degree days 1175 1189  
Cooling Degree Days 0 0  
Month to date cooling degree days 0 0  
Year to date cooling degree days 579 332  
Moisture  
Dew Point 30 °F    
Average Humidity 75    
Maximum Humidity 92    
Minimum Humidity 57    
Precipitation  
Precipitation 0.00 in 0.03 in 0.40 in (2014)
Month to date precipitation 0.39 0.28  
Year to date precipitation 8.18 12.36  
Snow  
Snow 0.00 in - - ()
Month to date snowfall 1.8  
Year to date snowfall 29.2  
Since 1 July snowfall 1.8  
Snow Depth 0.00 in    
Sea Level Pressure  
Sea Level Pressure 30.26 in    
Wind  
Wind Speed 1 mph (SW)    
Max Wind Speed 7 mph    
Max Gust Speed 7 mph    
Visibility 10 miles    
Events      
T = Trace of Precipitation, MM = Missing Value Source: NWS Daily Summary

Daily Weather History Graph

Daily Weather History Graph

Search for Another Location

Airport or City:

Trip Planner

Search our weather history database for the weather conditions in past years. The results will help you decide how hot, cold, wet, or windy it might be!

Date:

Astronomy

Nov. 09, 2013 Rise Set
Actual Time 7:31 AM MST 5:08 PM MST
Civil Twilight 6:58 AM MST 5:41 PM MST
Nautical Twilight 6:22 AM MST 6:17 PM MST
Astronomical Twilight 5:46 AM MST 6:53 PM MST
Moon 1:06 PM MST (11/9) 11:49 PM MST (11/9)
Length of Visible Light 10h 42m
Length of Day
9h 37m
Waxing Crescent, 45% of the Moon is Illuminated
Nov 9
Waxing Crescent
Nov 9
First Quarter
Nov 17
Full
Nov 25
Last Quarter
Dec 2
New

Hourly Weather History & Observations

Time (MST) Temp. Windchill Dew Point Humidity Pressure Visibility Wind Dir Wind Speed Gust Speed Precip Events Conditions
12:53 AM 33.1 °F 30.0 °F 30.0 °F 89% 30.22 in 10.0 mi SSW 3.5 mph - N/A   Overcast
1:53 AM 33.1 °F - 30.0 °F 89% 30.22 in 10.0 mi Calm Calm - N/A   Overcast
2:53 AM 34.0 °F - 30.0 °F 85% 30.25 in 10.0 mi Calm Calm - N/A   Partly Cloudy
3:53 AM 32.0 °F - 28.9 °F 88% 30.26 in 10.0 mi Calm Calm - N/A   Clear
4:53 AM 30.0 °F - 27.0 °F 88% 30.27 in 10.0 mi Calm Calm - N/A   Clear
5:53 AM 28.9 °F - 27.0 °F 92% 30.28 in 10.0 mi Calm Calm - N/A   Mostly Cloudy
6:53 AM 28.9 °F - 26.1 °F 89% 30.29 in 10.0 mi Calm Calm - N/A   Clear
7:53 AM 28.0 °F - 26.1 °F 92% 30.30 in 10.0 mi Calm Calm - N/A   Clear
8:53 AM 30.0 °F - 28.0 °F 92% 30.32 in 10.0 mi Calm Calm - N/A   Clear
9:53 AM 32.0 °F - 28.9 °F 88% 30.32 in 10.0 mi Calm Calm - N/A   Clear
10:53 AM 36.0 °F - 28.9 °F 76% 30.31 in 10.0 mi Calm Calm - N/A   Clear
11:53 AM 37.9 °F - 28.9 °F 70% 30.29 in 10.0 mi Calm Calm - N/A   Clear
12:53 PM 41.0 °F 39.0 °F 28.0 °F 60% 30.27 in 10.0 mi SE 3.5 mph - N/A   Clear
1:53 PM 42.1 °F - 28.9 °F 60% 30.25 in 10.0 mi Calm Calm - N/A   Clear
2:53 PM 43.0 °F - 28.0 °F 56% 30.23 in 10.0 mi Calm Calm - N/A   Clear
3:53 PM 42.1 °F - 28.9 °F 60% 30.24 in 10.0 mi Calm Calm - N/A   Clear
4:53 PM 39.9 °F 36.7 °F 30.9 °F 70% 30.25 in 10.0 mi West 4.6 mph - N/A   Mostly Cloudy
5:53 PM 39.0 °F - 30.9 °F 73% 30.24 in 10.0 mi Calm Calm - N/A   Scattered Clouds
6:53 PM 37.0 °F 34.5 °F 32.0 °F 82% 30.25 in 10.0 mi NNW 3.5 mph - N/A   Overcast
7:53 PM 37.9 °F - 32.0 °F 79% 30.25 in 10.0 mi Calm Calm - N/A   Overcast
8:53 PM 37.0 °F - 32.0 °F 82% 30.25 in 10.0 mi Calm Calm - N/A   Overcast
9:53 PM 37.0 °F - 32.0 °F 82% 30.25 in 10.0 mi Calm Calm - N/A   Overcast
10:53 PM 37.0 °F - 32.0 °F 82% 30.23 in 10.0 mi Calm Calm - N/A   Overcast
11:53 PM 35.1 °F 30.1 °F 32.0 °F 89% 30.23 in 10.0 mi South 5.8 mph - N/A   Overcast